2023/07/31 00:00:00, 0.0,23.7
2023/07/31 00:10:00, 0.0,23.5
2023/07/31 00:20:00, 0.0,23.4
2023/07/31 00:30:00, 0.0,23.6
2023/07/31 00:40:00, 0.0,23.4
2023/07/31 00:50:00, 0.0,23.2
2023/07/31 01:00:00, 0.0,23.1
2023/07/31 01:10:00, 0.0,23.3
2023/07/31 01:20:00, 0.0,23.0
2023/07/31 01:30:00, 0.0,23.1
2023/07/31 01:40:00, 0.0,23.3
2023/07/31 01:50:00, 0.0,22.8
2023/07/31 02:00:00, 0.0,22.9
2023/07/31 02:10:00,---,23.2
2023/07/31 02:20:00,19.6,22.7
2023/07/31 02:30:00,19.3,22.9
2023/07/31 02:40:00,19.0,22.7
2023/07/31 02:50:00,18.6,22.4
2023/07/31 03:00:00,18.6,22.3
2023/07/31 03:10:00,19.0,22.5
2023/07/31 03:20:00,19.2,22.2
2023/07/31 03:30:00,19.6,22.5
2023/07/31 03:40:00,20.1,22.4
2023/07/31 03:50:00,18.1,22.4
2023/07/31 04:00:00, 6.8,22.4
2023/07/31 04:10:00,19.1,22.0
2023/07/31 04:20:00,23.0,22.0
2023/07/31 04:30:00,22.8,21.9
2023/07/31 04:40:00,22.2,21.8
2023/07/31 04:50:00,21.8,21.9
2023/07/31 05:00:00,21.4,21.9
2023/07/31 05:10:00,21.2,21.7
2023/07/31 05:20:00,20.8,21.8
2023/07/31 05:30:00,20.5,21.6
2023/07/31 05:40:00,20.0,21.5
2023/07/31 05:50:00,19.8,21.7
2023/07/31 06:00:00,19.6,21.9
2023/07/31 06:10:00,19.3,22.7
2023/07/31 06:20:00,18.8,23.6
2023/07/31 06:30:00,18.5,23.2
2023/07/31 06:40:00,17.9,23.8
2023/07/31 06:50:00,17.7,24.6
2023/07/31 07:00:00,17.6,24.1
2023/07/31 07:10:00,17.3,24.9
2023/07/31 07:20:00,17.0,25.5
2023/07/31 07:30:00,17.2,25.7
2023/07/31 07:40:00,17.1,25.9
2023/07/31 07:50:00,16.9,26.2
2023/07/31 08:00:00,17.3,26.8
2023/07/31 08:10:00,17.6,27.9
2023/07/31 08:20:00,17.3,28.0
2023/07/31 08:30:00,17.4,27.7
2023/07/31 08:40:00,17.7,27.9
2023/07/31 08:50:00,17.9,28.2
2023/07/31 09:00:00,18.2,27.9
2023/07/31 09:10:00,18.4,28.7
2023/07/31 09:20:00,18.5,28.8
2023/07/31 09:30:00,18.5,29.6
2023/07/31 09:40:00,18.8,30.0
2023/07/31 09:50:00,19.0,29.5
2023/07/31 10:00:00,19.4,30.0
2023/07/31 10:10:00,19.3,30.2
2023/07/31 10:20:00, 0.0,31.6
2023/07/31 10:30:00,---,31.4
2023/07/31 10:40:00,---,31.8
2023/07/31 10:50:00, 0.1,32.1
2023/07/31 11:00:00, 0.5,32.5
2023/07/31 11:10:00, 0.4,32.7
2023/07/31 11:20:00, 0.1,32.8
2023/07/31 11:30:00, 0.1,33.2
2023/07/31 11:40:00, 9.9,33.0
2023/07/31 11:50:00,20.4,32.7
2023/07/31 12:00:00,20.2,32.8
2023/07/31 12:10:00,20.1,33.6
2023/07/31 12:20:00,20.1,32.6
2023/07/31 12:30:00,19.9,32.8
2023/07/31 12:40:00,19.4,34.5
2023/07/31 12:50:00,18.9,34.9
2023/07/31 13:00:00,19.1,34.8
2023/07/31 13:10:00,19.3,34.7
2023/07/31 13:20:00,19.6,33.8
2023/07/31 13:30:00,19.9,33.6
2023/07/31 13:40:00,20.0,33.7
2023/07/31 13:50:00,19.7,34.2
2023/07/31 14:00:00,19.6,34.9
2023/07/31 14:10:00,19.6,34.7
2023/07/31 14:20:00,19.5,34.7
2023/07/31 14:30:00,19.0,34.8
2023/07/31 14:40:00,19.3,34.5
2023/07/31 14:50:00,19.1,34.0
2023/07/31 15:00:00,19.3,33.5
2023/07/31 15:10:00,18.9,33.0
2023/07/31 15:20:00,18.5,31.8
2023/07/31 15:30:00,18.0,31.7
2023/07/31 15:40:00,18.1,31.4
2023/07/31 15:50:00,17.8,31.0
2023/07/31 16:00:00,17.5,31.0
2023/07/31 16:10:00,17.6,30.5
2023/07/31 16:20:00,17.6,30.3
2023/07/31 16:30:00,17.1,30.8
2023/07/31 16:40:00,17.1,31.2
2023/07/31 16:50:00,17.1,31.5
2023/07/31 17:00:00,17.1,31.2
2023/07/31 17:10:00,17.2,30.8
2023/07/31 17:20:00,17.1,30.7
2023/07/31 17:30:00,17.0,30.2
2023/07/31 17:40:00,16.6,29.3
2023/07/31 17:50:00,16.6,29.2
2023/07/31 18:00:00,17.0,29.0
2023/07/31 18:10:00,17.4,29.1
2023/07/31 18:20:00,17.3,28.7
2023/07/31 18:30:00,15.0,28.4
2023/07/31 18:40:00, 2.0,28.2
2023/07/31 18:50:00, 0.0,28.0
2023/07/31 19:00:00, 0.0,27.8
2023/07/31 19:10:00, 0.0,27.3
2023/07/31 19:20:00, 0.0,27.6
2023/07/31 19:30:00, 0.1,27.6
2023/07/31 19:40:00, 0.1,27.5
2023/07/31 19:50:00, 0.1,27.5
2023/07/31 20:00:00, 0.1,27.6
2023/07/31 20:10:00, 0.1,26.9
2023/07/31 20:20:00, 0.1,26.4
2023/07/31 20:30:00, 0.1,26.2
2023/07/31 20:40:00, 0.1,25.9
2023/07/31 20:50:00, 0.1,25.9
2023/07/31 21:00:00, 0.1,25.8
2023/07/31 21:10:00, 0.1,25.7
2023/07/31 21:20:00, 0.1,25.8
2023/07/31 21:30:00, 0.1,25.8
2023/07/31 21:40:00, 0.1,25.6
2023/07/31 21:50:00, 0.1,25.7
2023/07/31 22:00:00, 0.1,25.3
2023/07/31 22:10:00, 0.1,25.5
2023/07/31 22:20:00, 0.1,25.3
2023/07/31 22:30:00, 0.0,25.4
2023/07/31 22:40:00, 0.0,24.7
2023/07/31 22:50:00, 0.1,24.7
2023/07/31 23:00:00, 0.1,24.7
2023/07/31 23:10:00, 0.1,24.4
2023/07/31 23:20:00, 0.1,24.7
2023/07/31 23:30:00, 0.2,24.3
2023/07/31 23:40:00, 0.1,24.2
2023/07/31 23:50:00, 0.1,24.0
